Regional Weather Roundup
Issued by NWS

Home | Current Version | Previous Version | Graphics & Text | Print | Product List | Glossary On
Versions: 1 2 3 4 5 6 7 8 9 10 11 12 13 14 15 16 17 18 19 20 21 22 23 24 25 26 27 28 29 30 31 32 33 34 35 36 37 38 39 40 41 42 43 44 45 46 47 48 49 50
000
ASUS45 KBOU 220707
RWRCO

WEATHER ROUNDUP FOR COLORADO
NATIONAL WEATHER SERVICE DENVER/BOULDER CO
100 AM MDT MON SEP 22 2014

NOTE: "FAIR" INDICATES FEW OR NO CLOUDS BELOW 12000 FEET WITH NO
SIGNIFICANT WEATHER AND/OR OBSTRUCTIONS TO VISIBILITY.

COZ001>005-013-030-031-220800-
...NORTHWEST COLORADO...

CITY           SKY/WX    TMP DP  RH WIND       PRES   REMARKS
CRAIG          PTCLDY    55  51  86 N6        30.27F
HAYDEN         MOCLDY    54  48  82 E12       30.28F
MEEKER         MOCLDY    55  51  86 N3        30.27S
MOUNT WERNER   NOT AVBL
STEAMBOAT SPGS CLOUDY    52  50  93 SE7       30.30F
WALDEN         CLOUDY    46  43  87 E5        30.41S
$$

COZ006>008-011-220800-
...WEST CENTRAL VALLEYS...

CITY           SKY/WX    TMP DP  RH WIND       PRES   REMARKS
GRAND JUNCTION CLOUDY    61  57  87 VRB5      30.20R
MONTROSE       LGT RAIN  60  57  89 E8        30.29F
EAGLE          CLOUDY    55  55 100 S7        30.37R
RIFLE          CLOUDY    60  57  89 W5        30.26R
DELTA          CLOUDY    64  59  84 N7        30.26S
NUCLA          LGT RAIN  61  55  82 SE9       30.32S
$$

COZ017>023-064>068-220800-
...SOUTHWEST COLORADO...

CITY           SKY/WX    TMP DP  RH WIND       PRES   REMARKS
DURANGO        CLOUDY    62  52  69 SE3       30.34S
CORTEZ         CLOUDY    61  59  93 VRB3      30.29S
PAGOSA SPRINGS CLOUDY    59  47  65 CALM      30.42S
TELLURIDE      NOT AVBL
WOLF CREEK PAS RAIN      41  41 100 S9G17     30.65F VSB<1/4
$$

COZ009-010-012-014-032>034-037-058>063-220800-
...CENTRAL COLORADO...

CITY           SKY/WX    TMP DP  RH WIND       PRES   REMARKS
ASPEN          CLOUDY    52  50  93 SW3       30.38F
BUENA VISTA    RAIN      54  52  94 E6        30.43F
COPPER MTN     MOCLDY    46  39  76 S10G16    30.63F
BERTHOUD PASS  CLOUDY    37  36  93 SE5       30.68F
COTTONWOOD PAS LGT RAIN  52  48  87 SE15G21   30.53F VSB 1/4
GUNNISON       CLOUDY    57  46  67 N7        30.39S
KREMMLING      DRIZZLE   50  46  87 CALM      30.41F
LEADVILLE      CLOUDY    47  47 100 CALM      30.51F FOG
MONARCH PASS   FOG       43  41  93 S14G22    30.75F VSB 3/4
SALIDA         CLOUDY    57  54  89 CALM      30.49S
SUNLIGHT       RAIN      46  46 100 CALM      30.55F
WILKERSON PASS NOT AVBL
$$

COZ069>075-220800-
...SAN LUIS VALLEY/SANGRE DE CRISTO MOUNTAINS...

CITY           SKY/WX    TMP DP  RH WIND       PRES   REMARKS
ALAMOSA        MOCLDY    56  48  74 SW6       30.40S
LA VETA PASS   MOCLDY    46  43  87 S6        30.58S
SAGUACHE       NOT AVBL
$$

COZ035-036-038>040-220800-
...NORTHERN COLORADO FRONT RANGE...

CITY           SKY/WX    TMP DP  RH WIND       PRES   REMARKS
DENVER INTL AP MOCLDY    59  50  72 S12       30.28F
DMNS CITY PARK   N/A     58  55  91 S7        30.26F
AURORA         CLOUDY    58  47  66 S17       30.29F
FRONT RANGE AP CLOUDY    61  46  59 S13G20    30.29F
ERIE MUNI ARPT NOT AVBL
BOULDER MUN AP PTCLDY    59  52  77 CALM      30.25F
CENTENNIAL     MOCLDY    59  45  59 S18       30.31S
BROOMFIELD     PTCLDY    57  54  88 SE6       30.28F
FORT COLLINS   PTCLDY    55  45  67 CALM      30.27F
LONGMONT       PTCLDY    58  54  88 NW3       30.27F
$$

COZ041-046-047-076>085-087-088-220800-
...PIKES PEAK/PALMER DIVIDE AND SOUTHERN FOOTHILLS...

CITY           SKY/WX    TMP DP  RH WIND       PRES   REMARKS
COLO. SPRINGS  CLOUDY    61  41  47 SE12      30.39F
A. F. ACADEMY  CLOUDY    59  40  49 S15       30.39F
ELLICOTT       NOT AVBL
FALCON         CLOUDY    56  40  53 SE12      30.42F
FORT CARSON    CLOUDY    61  42  50 SE7       30.36F
LIMON          PTCLDY    51  39  63 S8        30.36S
MONUMENT HILL  PTCLDY    54  37  54 S23G31    30.37F
TRINIDAD       MOCLDY    60  57  89 CALM      30.35F
$$

COZ042>045-048>051-090-091-220800-
...NORTHEAST COLORADO...

CITY           SKY/WX    TMP DP  RH WIND       PRES   REMARKS
GREELEY ARPT   PTCLDY    61  50  67 S8        30.26F
AKRON          CLOUDY    60  40  47 S17       30.31F
BURLINGTON     MOCLDY    56  40  55 S9        30.33S
WRAY           CLOUDY    64  41  42 SE8       30.30F
STERLING       CLOUDY    64  45  48 S10       30.28S
HOLYOKE        MOCLDY    61  41  48 SE10      30.30S
FORT MORGAN    CLOUDY    60  39  47 SE7       30.30S
$$

COZ086-089-092>099-220800-
...SOUTHEAST COLORADO...

CITY           SKY/WX    TMP DP  RH WIND       PRES   REMARKS
PUEBLO         CLOUDY    63  46  54 E10       30.29F
LA JUNTA       MOCLDY    60  42  51 E6        30.31S
LAMAR          PTCLDY    59  42  53 SE9       30.30S
SPRINGFIELD      N/A     53  45  74 S7        30.34S
$$


USA.gov is the U.S. government's official web portal to all federal, state and local government web resources and services.